Regional Weather Roundup
Issued by NWS

Home | Current Version | Previous Version | Graphics & Text | Print | Product List | Glossary On
Versions: 1 2 3 4 5 6 7 8 9 10 11 12 13 14 15 16 17 18 19 20 21 22 23 24 25 26 27 28 29 30 31 32 33 34 35 36 37 38 39 40 41 42 43 44 45 46 47 48 49 50
000
ASUS43 KLOT 241703
RWRIL

ILLINOIS REGIONAL WEATHER ROUNDUP
NATIONAL WEATHER SERVICE CHICAGO/ROMEOVILLE IL
1100 AM CST FRI NOV 24 2017

NOTE: "FAIR" INDICATES FEW OR NO CLOUDS BELOW 12,000 FEET WITH NO
SIGNIFICANT WEATHER AND/OR OBSTRUCTIONS TO VISIBILITY.

* THESE STATIONS ARE NOT UNDER NWS QUALITY CONTROL. THEY ALSO MAY NOT
  REPORT WEATHER SUCH AS PRECIPITATION OR FOG.

ILZ001-002-007-009-015-016-024-241800-
NORTHWEST ILLINOIS

CITY           SKY/WX    TMP DP  RH WIND       PRES   REMARKS
MOLINE         SUNNY     61  36  39 S16G29    29.55F
STERLING*      SUNNY     58  37  45 S8G17     29.60F
SAVANNA*       SUNNY     57  36  45 S20       29.55F
$$

ILZ003-004-008-010-011-017-018-241800-
NORTH CENTRAL ILLINOIS

CITY           SKY/WX    TMP DP  RH WIND       PRES   REMARKS
ROCKFORD       SUNNY     55  37  50 S15       29.62F
FREEPORT*      SUNNY     56  35  46 S24G30    29.57F
ROCHELLE*      SUNNY     54  38  55 S22G28    29.61F
DE KALB*       SUNNY     53  37  56 S22G29    29.63F
PERU*          SUNNY     56  35  44 S15       29.65F
$$

ILZ005-006-012>014-019>023-241800-
NORTHEAST ILLINOIS

CITY           SKY/WX    TMP DP  RH WIND       PRES   REMARKS
CHICAGO-OHARE  MOSUNNY   53  33  46 S18G26    29.64F
CHICAGO-MIDWAY NOT AVBL
AURORA         SUNNY     52  36  54 S16G24    29.66F
LANSING*       SUNNY     52  37  57 S20       29.71F
JOLIET*        SUNNY     55  36  50 S12       29.68F
WAUKEGAN       SUNNY     56  35  45 SW18      29.59F
DUPAGE AIRPORT SUNNY     51  35  54 S16G26    29.64F
KANKAKEE*      SUNNY     51  35  53 S14G21    29.74F
WHEELING       SUNNY     54  34  46 S20       29.65F
MORRIS*        SUNNY     55  37  50 S15       29.66F
ROMEOVILLE*    SUNNY     51  36  55 S16       29.67F
NORTHERLY ISL    N/A     51  30  44 SE21        N/A
$$

LMZ740>746-241800-
SOUTHERN LAKE MICHIGAN

STATION/POSITION SKY/WX   TEMP    WIND        PRES    VSBY  WAVE
                          AIR SEA DIR/SP/G                  HT/PER
                          (F)     (DEG/KT/KT) (MB)    (MI)  (FT/S)
SOUTHERN BUOY              46 47  200/ 25/ 29 1004.5          5/ 5
HARRISON CRIB              49     190/ 25/ 27   N/A
BURNHAM HARBOR             52     180/ 16/ 22   N/A
CALUMET HARBOR             49     170/ 12/ 18 1005.1F
BURNS HARBOR               49     190/ 16/ 29 1006.8F
MICHIGAN CITY              48     180/ 14/ 21   N/A
$$

ILZ025>027-034>036-040-047-049-050-058-095>099-241800-
WEST-CENTRAL ILLINOIS

CITY           SKY/WX    TMP DP  RH WIND       PRES   REMARKS
QUINCY         SUNNY     64  36  35 SW24G31   29.67F
GALESBURG*     SUNNY     61  39  44 S17G25    29.63F
MACOMB*        SUNNY     62  37  38 S20G26    29.66F
JACKSONVILLE*  SUNNY     60  35  39 S16       29.71F
PITTSFIELD*    SUNNY     63  37  38 S17       29.71F
$$

ILZ028>032-037-038-041>044-048-051>054-059>061-241800-
CENTRAL ILLINOIS

CITY           SKY/WX    TMP DP  RH WIND       PRES   REMARKS
PONTIAC        SUNNY     56  37  49 S20G26    29.70F
BLOOMINGTON    SUNNY     53  37  54 S21       29.72F
DECATUR        SUNNY     53  35  50 S16       29.78F
PEORIA         SUNNY     55  37  50 S16       29.68F
LACON*         SUNNY     58  35  42 SW12G17   29.65F
LINCOLN*       SUNNY     54  38  55 S15       29.73F
SPRINGFIELD    SUNNY     57  37  47 S13       29.75F
TAYLORVILLE    SUNNY     52  37  56 S16       29.78F
$$

ILZ033-039-045-046-055>057-062-063-241800-
EAST-CENTRAL ILLINOIS

CITY           SKY/WX    TMP DP  RH WIND       PRES   REMARKS
CHAMPAIGN      SUNNY     51  34  52 S20       29.79F
DANVILLE*      SUNNY     49  33  54 S13       29.77F
RANTOUL*       SUNNY     52  37  57 S15       29.77F
MATTOON        SUNNY     49  33  54 S14       29.81F
PARIS*         SUNNY     48  34  58 S14       29.84F
$$

ILZ079-100>102-241800-
SOUTHWEST ILLINOIS

CITY           SKY/WX    TMP DP  RH WIND       PRES   REMARKS
BELLEVILLE     SUNNY     57  36  46 S12       29.81F
CAHOKIA*       SUNNY     60  35  39 S8        29.81F
SPARTA*        SUNNY     55  34  44 S13       29.86F
$$

ILZ064>066-069>071-074>076-080>082-084>086-088>090-092>094-241800-
SOUTH-CENTRAL ILLINOIS

CITY           SKY/WX    TMP DP  RH WIND       PRES   REMARKS
CARBONDALE     SUNNY     57  33  40 S12       29.88F
CAIRO*         SUNNY     52  35  52 S9        29.93F
EFFINGHAM*     SUNNY     49  36  59 SE7       29.85F
MARION         PTSUNNY   54  32  43 S12       29.91F
MT. VERNON     MOSUNNY   53  36  52 S10       29.87F
CENTRALIA*     PTSUNNY   51  36  56 S9        29.84F
SALEM*         PTSUNNY   51  33  50 S9        29.85F
METROPOLIS*    SUNNY     54  32  43 S8        29.94F
$$

ILZ067-068-072-073-078-083-087-091-241800-
SOUTHEAST ILLINOIS

CITY           SKY/WX    TMP DP  RH WIND       PRES   REMARKS
LAWRENCEVILLE  MOSUNNY   50  34  54 S13       29.89F
FLORA*         SUNNY     49  35  57 S10       29.87F
FAIRFIELD*     PTSUNNY   50  34  54 S5        29.87F
HARRISBURG*    SUNNY     53  32  44 S10       29.90F
ROBINSON*      MOSUNNY   47  32  55 S10       29.88F
CARMI*         PTSUNNY   51  33  49 S14       29.89F
$$

ABBREVIATIONS USED IN REMARKS
   TC - TEMPERATURE IN CELSIUS
  WCI - WIND CHILL INDEX
   HX - HEAT INDEX
  VSB - VISIBILITY
$$




USA.gov is the U.S. government's official web portal to all federal, state and local government web resources and services.